sat.trackr.live / text

‹ back to catalog

STARLINK-36450

NORAD 67317 · 2026-002N

PAYLOAD ACTIVE UNKNOWN

§ Identity

Operator
Country
US
Launch date
2026-01-04
Launch site
AFETR
Launch vehicle
Mass (kg)
RCS (m²)

Purposes: comms

External: N2YO · Heavens-Above · Gunter

§ Orbital elements

Epoch: 2026-05-24T23:42:34.795872Z

Period
94.27 min
Inclination
43.0010°
Eccentricity
0.0001624
Mean motion
15.27606358 rev/d
Perigee alt
481.9 km
Apogee alt
484.1 km
Semi-major
6,861.1 km
B*
1.3175e-3
RAAN
254.7323°
Arg perigee
291.1084°
Mean anomaly
68.9594°
Rev number
2,290

§ Raw data

STARLINK-364501 67317U 26002N   26144.98790273  .00036200  00000+0  13175-2 0  99952 67317  43.0010 254.7323 0001624 291.1084  68.9594 15.27606358 22905

JSON: /api/v1/satellites/67317 · /tle

For live sub-satellite position, see the globe view (requires WebGL).

§ Visibility from observer

Set your observer location to see the next 7 days of passes ≥ 10°. The values pass through the URL so the page stays shareable.

No JS? Fill the form by hand. The geolocation button needs JavaScript.